Location: Allen Lane School
(37.8198°N, 89.7382°W)
Time: 12:51:53
(UTC+00:00)

Cosmos 44 - Pass Details

Date: 11 July 2022
Orbit: 595 x 766 km, 65.1° (Epoch: 18 August)

Event Time Altitude Azimuth Distance (km) Brightness Sun altitude
Exits shadow 05:54:59 11° 285° (WNW) 1,930 5.7 -30.0°
Maximum altitude 05:57:06 15° 314° (NW) 1,707 5.8 -30.1°
Drops below altitude 10° 05:59:40 10° 349° (N) 1,987 6.5 -30.1°
Sets 06:02:50 0° 14° (NNE) 2,871 7.6 -30.1°
